Voltar ao catálogo

DELTA 2 R/B(2)

AtivoHEO
NORAD 23641·ROCKET BODY·🇺🇸 United States

Lançado Aug 5, 1995 de Cape Canaveral Space Force Station

Loading…

Próximas Passagens (próximas 24 horas)

TLE

AtualizadoSource: Space-Track

Época: Sep 14, 2026, 01:57 UTC

1 23641U 95041C   26257.08163046 -.00000118  00000-0  00000-0 0  9996
2 23641  20.7863  16.2083 6426642  96.3054 184.0881  2.70406702307458

Acompanhe DELTA 2 R/B(2) em tempo real com AllMySat

Download on the App Store